DW0499 Weather Reports


Display with metric or nautical units.
time (UTC)temp
F
wind
direction
speed
MPH
gust
MPH
rain 1hr
in
rain 24hr
in
rain mn
in
humidity
%
barometer
mb
20260507043055 45 360 3.0 6.0 0.00 0.27 0.03 24 1013.6
20260507041602 45 360 2.0 5.0 0.00 0.27 0.03 25 1013.6
20260507040058 45 360 4.0 6.0 0.00 0.26 0.02 24 1013.5
20260507034600 45 360 4.0 5.0 0.00 0.26 0.02 23 1013.4
20260507033101 45 360 2.0 4.0 0.00 0.26 0.02 23 1013.5
20260507031605 45 0 0.0 6.0 0.00 0.26 0.02 23 1013.3
20260507030059 45 360 5.0 8.0 0.00 0.26 0.02 23 1013.3
20260507024555 45 360 3.0 6.0 0.00 0.26 0.02 23 1013.3
20260507023105 45 360 3.0 6.0 0.01 0.26 0.02 23 1013.3
20260507021555 45 360 2.0 4.0 0.00 0.25 0.01 22 1013.3
20260507020057 45 0 0.0 5.0 0.00 0.25 0.01 23 1013.3
20260507014604 45 360 3.0 8.0 0.00 0.25 0.01 22 1013.2
20260507013056 45 360 3.0 6.0 0.00 0.25 0.00 22 1013.2
20260507011555 45 360 3.0 6.0 0.00 0.25 0.00 22 1013.2
20260507010107 45 360 2.0 4.0 0.00 0.25 0.00 22 1013.3
20260507004557 45 360 2.0 5.0 0.00 0.25 0.00 22 1013.3
20260507003058 45 360 0.0 3.0 0.00 0.25 0.00 22 1013.2
20260507001605 45 360 4.0 6.0 0.00 0.25 0.00 22 1013.1
20260507000105 45 360 5.0 11.0 0.00 0.25 0.00 22 1013.1
20260506234603 45 360 6.0 10.0 0.00 0.25 0.00 22 1013.1
20260506233129 45 360 0.0 0.0 0.00 0.25 0.00 22 1013.2
20260506231605 45 0 0.0 0.0 0.00 0.25 0.00 22 1012.9
20260506230057 45 0 0.0 1.0 0.00 0.25 0.00 22 1013.2
20260506224556 45 0 0.0 5.0 0.00 0.25 0.00 22 1013.1
20260506223103 46 360 3.0 5.0 0.00 0.25 0.00 22 1013.2
20260506221559 46 360 3.0 6.0 0.00 0.25 0.00 22 1013.1
20260506220059 46 0 0.0 0.0 0.00 0.25 0.00 23 1013.0
20260506214557 46 0 0.0 4.0 0.00 0.25 0.25 24 1012.7
20260506213113 46 0 1.0 3.0 0.00 0.25 0.25 25 1012.8
20260506211558 45 360 1.0 4.0 0.00 0.25 0.25 25 1012.7
20260506210059 45 360 1.0 3.0 0.00 0.25 0.25 27 1012.5
20260506204558 45 360 2.0 4.0 0.00 0.25 0.25 28 1012.6
20260506203058 44 360 1.0 4.0 0.00 0.25 0.25 29 1012.3
20260506201557 45 360 3.0 6.0 0.00 0.25 0.25 34 1012.2
20260506200057 47 360 3.0 6.0 0.00 0.25 0.25 39 1012.2
20260506194634 47 360 4.0 6.0 0.00 0.25 0.24 38 1011.9
20260506193105 47 360 4.0 8.0 0.00 0.25 0.24 37 1011.7
20260506191558 47 360 4.0 8.0 0.00 0.25 0.24 36 1011.4
20260506184555 48 360 4.0 6.0 0.00 0.25 0.24 36 1011.4
20260506183057 49 360 2.0 6.0 0.00 0.25 0.24 35 1011.3
20260506181558 49 360 2.0 5.0 0.00 0.25 0.24 35 1011.3
20260506180106 49 360 3.0 5.0 0.00 0.25 0.24 36 1011.2
20260506174557 49 360 2.0 11.0 0.00 0.26 0.24 38 1011.1
20260506173059 49 360 4.0 9.0 0.00 0.26 0.24 38 1011.0
20260506171602 49 360 3.0 9.0 0.00 0.26 0.24 38 1010.8
20260506170106 49 360 6.0 10.0 0.01 0.26 0.24 39 1010.6
20260506164602 49 360 7.0 12.0 0.00 0.25 0.23 40 1010.9
20260506163114 49 360 7.0 14.0 0.00 0.25 0.23 37 1010.8
20260506161602 50 360 6.0 14.0 0.00 0.25 0.23 35 1010.7
20260506160105 50 360 7.0 11.0 0.00 0.25 0.22 34 1010.8
20260506154629 49 360 8.0 13.0 0.00 0.25 0.22 38 1010.9
20260506153117 50 360 6.0 15.0 0.01 0.25 0.22 40 1010.9
20260506151611 50 360 8.0 20.0 0.01 0.25 0.22 41 1010.7
20260506150110 50 360 10.0 14.0 0.01 0.24 0.22 37 1010.8
20260506144611 49 360 11.0 18.0 0.01 0.24 0.22 31 1010.7
20260506143115 49 360 10.0 18.0 0.01 0.23 0.21 28 1010.8
20260506141606 49 360 11.0 15.0 0.01 0.23 0.21 28 1010.8
20260506140106 48 360 10.0 16.0 0.00 0.22 0.20 25 1010.9
20260506134603 48 360 8.0 16.0 0.00 0.22 0.20 23 1010.9
20260506133055 48 360 9.0 18.0 0.00 0.22 0.19 22 1010.9
20260506131601 47 360 7.0 16.0 0.01 0.22 0.19 22 1010.8
20260506124559 46 360 6.0 13.0 0.01 0.23 0.19 22 1010.8
20260506123058 46 360 7.0 13.0 0.01 0.22 0.18 22 1010.7
20260506121559 47 360 4.0 12.0 0.01 0.22 0.18 24 1010.4
20260506114606 47 360 8.0 13.0 0.02 0.22 0.18 24 1010.2
20260506113057 48 360 7.0 12.0 0.02 0.21 0.17 23 1009.9
20260506111557 47 360 10.0 17.0 0.02 0.20 0.16 23 1010.2
20260506110103 47 360 11.0 20.0 0.03 0.20 0.16 22 1009.9
20260506104603 46 360 6.0 18.0 0.03 0.19 0.15 21 1010.0
20260506103059 46 360 12.0 18.0 0.03 0.18 0.14 21 1010.0
20260506101606 46 360 8.0 16.0 0.05 0.18 0.14 22 1009.8
20260506094627 46 360 2.0 5.0 0.07 0.17 0.11 22 1009.5
20260506093057 46 0 1.0 4.0 0.07 0.16 0.11 22 1009.4
20260506091559 46 360 3.0 8.0 0.07 0.14 0.08 21 1009.5
20260506090054 47 360 6.0 11.0 0.06 0.12 0.07 21 1009.2
20260506084602 47 0 0.0 5.0 0.03 0.10 0.04 21 1008.6
20260506083103 47 0 1.0 5.0 0.02 0.08 0.03 21 1008.2
20260506081559 47 0 0.0 4.0 0.00 0.06 0.00 22 1008.0
20260506073103 46 360 1.0 3.0 0.00 0.06 0.00 22 1007.6
20260506071601 46 360 2.0 4.0 0.00 0.06 0.00 22 1007.6
20260506070110 46 360 0.0 2.0 0.00 0.06 0.00 22 1007.7
20260506061558 45 360 1.0 3.0 0.00 0.09 0.00 22 1007.9
20260506044602 44 360 4.0 6.0 0.00 0.22 0.00 23 1007.8